User: anonymous   Login
Location: Unspecified
(0.0000°N, 0.0000°E)
Time: 15:09:21
(UTC+02:00)
Language:

Landsat 4 - Orbit

View from above orbital plane
View from above orbital plane
View from above satellite
View from above satellite

Ground track
Ground track

The orbit data is extracted from the following two-line orbital elements,

1 13367U 82072A   15111.21319767  .00007035  00000-0  40218-3 0  9997
2 13367 098.1791 201.3027 0013986 004.3682 047.3113 15.12957159765745
Epoch (UTC): 21 April 2015 05:07:00
Eccentricity: 0.0013986
inclination: 98.1791°
perigee height: 517 km
apogee height: 537 km
right ascension of ascending node: 201.3027°
argument of perigee: 4.3682°
revolutions per day: 15.12957159
mean anomaly at epoch: 47.3113°
orbit number at epoch: 76574

The dashed part of the orbit path shows where the satellite is in the earth's shadow,  

DLR